Location: Bartlow
(52.0833°N, 0.3167°E)
Time: 11:10:40
(UTC+00:00)

Thor Agena Rocket - Pass Details

Date: 26 September 2023
Orbit: 757 x 806 km, 99.0° (Epoch: 28 November)

Event Time Altitude Azimuth Distance (km) Brightness Sun altitude
Rises 02:30:09 0° 19° (NNE) 3,308 7.7 -29.1°
Reaches altitude 10° 02:32:34 10° 25° (NNE) 2,380 6.8 -28.8°
Maximum altitude 02:37:40 49° 100° (E) 1,029 4.3 -28.2°
Enters shadow 02:38:37 44° 133° (SE) 1,104 4.3 -28.1°
